Tracking 25378 objects as of 22-Jan-2022
HD Live streaming from Space Station
objects crossing your sky now

COSMOS 1974

Track COSMOS 1974 now!
COSMOS 1974 is classified as:


NORAD ID: 19554
Int'l Code: 1988-092A
Perigee: 7,699.9 km
Apogee: 32,670.0 km
Inclination: 70.0 °
Period: 717.8 minutes
Semi major axis: 26555 km
RCS: 16.1296 m2 (large)
Launch date: October 3, 1988
Source: Commonwealth of Independent States (former USSR) (CIS)
Launch site: PLESETSK MISSILE AND SPACE COMPLEX (PKMTR)
aabbcc
Your satellite tracking list
Your tracking list is empty




NASA's NSSDC Master Catalog

Two Line Element Set (TLE):
1 19554U 88092A   22020.74536119  .00000130  00000-0  00000-0 0  9997
2 19554  69.9519 242.5467 4701416 109.5758 167.0945  2.00613616243874
Source of the keplerian elements: AFSPC